Weather History for Doha, Qatar

Change the Weather History Date:

Monday, January 2, 2012

  Actual Average Record
Temperature  
Mean Temperature 67 °F -  
Max Temperature 75 °F 71 °F 80 °F (2008)
Min Temperature 59 °F 55 °F 50 °F (2007)
Cooling Degree Days 2    
Growing Degree Days 17 (Base 50)    
Moisture  
Dew Point 59 °F    
Average Humidity 75    
Maximum Humidity 94    
Minimum Humidity 46    
Precipitation  
Precipitation 0.00 in 0.02 in - ()
Sea Level Pressure  
Sea Level Pressure 29.99 in    
Wind  
Wind Speed 4 mph ()    
Max Wind Speed 13 mph    
Max Gust Speed -    
Visibility 4.4 miles    
Events      
Averages and records for this station are not official NWS values.
T = Trace of Precipitation, MM = Missing Value Source: Averaged Metar Reports

Daily Weather History Graph

Daily Weather History Graph

Search for Another Location

Airport:

Trip Planner

Search our weather history database for the weather conditions in past years. The results will help you decide how hot, cold, wet, or windy it might be!

Date:

Astronomy

Jan. 02, 2012 Rise Set
Actual Time 6:19 AM AST 4:55 PM AST
Civil Twilight 5:54 AM AST 5:20 PM AST
Nautical Twilight 5:25 AM AST 5:49 PM AST
Astronomical Twilight 4:57 AM AST 6:17 PM AST
Moon 11:44 AM AST (1/2) 12:09 AM AST (1/2)
Length of Visible Light 11h 26m
Length of Day
10h 36m
First Quarter, 60% of the Moon is Illuminated
Jan 2
First Quarter
Jan 9
Full
Jan 16
Last Quarter
Jan 23
New
Jan 31
First Quarter

Hourly Weather History & Observations

Time (AST) Temp. Dew Point Humidity Pressure Visibility Wind Dir Wind Speed Gust Speed Precip Events Conditions
12:00 AM 66.2 °F 60.8 °F 83% 30.04 in - South 4.6 mph - N/A   Clear
12:30 AM 64.4 °F 60.8 °F 88% 30.01 in - SSW 3.5 mph - N/A   Clear
1:00 AM 64.4 °F 60.8 °F 88% 30.04 in - Variable 1.2 mph - N/A   Clear
1:30 AM 64.4 °F 60.8 °F 88% 30.01 in - Variable 2.3 mph - N/A   Clear
2:00 AM 64.4 °F 60.8 °F 88% 30.01 in - Variable 2.3 mph - N/A   Clear
2:30 AM 62.6 °F 59.0 °F 88% 30.01 in 5.6 mi Variable 1.2 mph - N/A   Haze
3:00 AM 61 °F 59 °F 90% 30.02 in 5 mi 1.2 mph - -   Haze
3:00 AM 60.8 °F 59.0 °F 94% 30.01 in 5.0 mi Variable 1.2 mph - N/A   Unknown
3:30 AM 62.6 °F 60.8 °F 94% 30.01 in 5.0 mi Calm Calm - N/A   Haze
4:00 AM 60.8 °F 59.0 °F 94% 30.01 in 5.0 mi Calm Calm - N/A   Unknown
4:30 AM 62.6 °F 60.8 °F 94% 30.01 in 4.3 mi Calm Calm - N/A   Haze
4:53 AM - - N/A% - 3.7 mi Variable 2.3 mph - N/A   Unknown
5:00 AM 62.6 °F 60.8 °F 94% 30.01 in 3.7 mi Variable 2.3 mph - N/A   Unknown
6:00 AM 60.8 °F 59.0 °F 94% 30.01 in 2.5 mi SE 3.5 mph - N/A   Mist
6:30 AM 62.6 °F 59.0 °F 88% 30.04 in 2.5 mi Variable 2.3 mph - N/A   Mist
7:00 AM 62.6 °F 59.0 °F 88% 30.04 in 3.1 mi SE 3.5 mph - N/A   Mist
7:30 AM 64.4 °F 60.8 °F 88% 30.04 in 3.1 mi SSE 3.5 mph - N/A   Mist
8:00 AM 66.2 °F 62.6 °F 88% 30.06 in 3.7 mi SE 4.6 mph - N/A   Unknown
8:30 AM 68.0 °F 62.6 °F 83% 30.06 in 3.7 mi SE 3.5 mph - N/A   Unknown
9:00 AM 69 °F 62 °F 74% 30.08 in 4 mi SSE 4.6 mph - -   Haze
9:30 AM 71.6 °F 60.8 °F 69% 30.06 in 5.0 mi SSE 6.9 mph - N/A   Unknown
10:00 AM 71.6 °F 60.8 °F 69% 30.04 in 5.6 mi South 8.1 mph - N/A   Unknown
10:30 AM 71.6 °F 60.8 °F 69% 30.04 in - SE 10.4 mph - N/A   Clear
11:00 AM 73.4 °F 60.8 °F 65% 30.01 in - SE 10.4 mph - N/A   Clear
11:30 AM 73.4 °F 59.0 °F 61% 29.98 in - SE 8.1 mph - N/A   Clear
12:00 PM 73.4 °F 59.0 °F 61% 29.95 in - SE 11.5 mph - N/A   Clear
12:30 PM 75.2 °F 59.0 °F 57% 29.95 in - SE 10.4 mph - N/A   Clear
1:00 PM 75.2 °F 59.0 °F 57% 29.95 in - SE 10.4 mph - N/A   Clear
1:30 PM 73.4 °F 57.2 °F 57% 29.95 in - SE 11.5 mph - N/A   Clear
2:00 PM 75.2 °F 55.4 °F 50% 29.95 in - SE 10.4 mph - N/A   Clear
2:30 PM 73.4 °F 57.2 °F 57% 29.95 in - SE 10.4 mph - N/A   Clear
3:00 PM 73 °F 56 °F 46% 29.95 in 7 mi SE 11.5 mph - -   Clear
3:00 PM 73.4 °F 57.2 °F 57% 29.95 in - SE 11.5 mph - N/A   Clear
3:30 PM 71.6 °F 53.6 °F 53% 29.95 in - SE 12.7 mph - N/A   Clear
4:00 PM 71.6 °F 55.4 °F 57% 29.95 in - SE 9.2 mph - N/A   Clear
4:30 PM 69.8 °F 55.4 °F 60% 29.95 in - ESE 9.2 mph - N/A   Clear
5:00 PM 69.8 °F 59.0 °F 68% 29.95 in - ESE 8.1 mph - N/A   Clear
5:30 PM 68.0 °F 59.0 °F 73% 29.95 in - SE 6.9 mph - N/A   Clear
6:00 PM 68.0 °F 57.2 °F 68% 29.95 in - SE 5.8 mph - N/A   Clear
6:30 PM 68.0 °F 59.0 °F 73% 29.98 in - ESE 5.8 mph - N/A   Clear
7:00 PM 66.2 °F 59.0 °F 78% 29.98 in - ESE 5.8 mph - N/A   Clear
7:30 PM 66.2 °F 59.0 °F 78% 29.98 in - ESE 3.5 mph - N/A   Clear
8:00 PM 66.2 °F 60.8 °F 83% 29.98 in - ESE 5.8 mph - N/A   Clear
8:30 PM 68.0 °F 57.2 °F 68% 29.98 in - ESE 5.8 mph - N/A   Clear
9:00 PM 67 °F 58 °F 66% 29.99 in 7 mi SE 3.5 mph - -  
9:00 PM 66.2 °F 59.0 °F 78% 29.98 in - SE 3.5 mph - N/A   Clear
9:30 PM 66.2 °F 59.0 °F 78% 29.98 in - SE 3.5 mph - N/A   Clear
10:00 PM 66.2 °F 60.8 °F 83% 29.98 in - SE 3.5 mph - N/A   Clear
10:30 PM 66.2 °F 59.0 °F 78% 29.95 in - SSE 6.9 mph - N/A   Clear
11:00 PM 66.2 °F 59.0 °F 78% 29.95 in - SSE 6.9 mph - N/A   Clear
11:30 PM 66.2 °F 59.0 °F 78% 29.95 in - SSE 5.8 mph - N/A   Clear